QPF
0.04 0.04 0.03 0.05 0.05 0.03 0.04 0.05 0.05 0.05 0.05 0.04 0.04 0.05 0.05 0.06 0.09 0.10 0.08 0.08 0.09 0.10 0.11 0.09 0.07 0.07 0.07 0.06 0.07 0.08 0.08 0.08 0.08 0.07 0.07 0.07 0.06 0.06 0.06 0.07 0.08 0.06 0.05
0.06 0.06 0.05 0.05 0.03 0.02 0.02 0.03 0.03 0.03 0.04 0.05 0.05 0.04 0.04 0.04 0.06 0.08 0.08 0.09 0.10 0.09 0.09 0.09 0.09 0.08 0.07 0.07 0.08 0.09 0.10 0.09 0.09 0.07 0.07 0.06 0.06 0.05 0.04 0.05 0.07 0.07 0.05
0.07 0.07 0.05 0.05 0.04 0.03 0.04 0.03 0.03 0.03 0.03 0.03 0.04 0.04 0.04 0.04 0.04 0.05 0.06 0.07 0.09 0.11 0.13 0.11 0.09 0.08 0.07 0.07 0.07 0.07 0.08 0.09 0.08 0.08 0.07 0.06 0.06 0.06 0.05 0.04 0.05 0.07 0.06
0.06 0.05 0.04 0.04 0.04 0.04 0.04 0.04 0.03 0.03 0.03 0.03 0.04 0.04 0.05 0.05 0.05 0.07 0.08 0.07 0.08 0.11 0.13 0.13 0.10 0.08 0.07 0.06 0.07 0.06 0.06 0.07 0.07 0.07 0.07 0.06 0.05 0.06 0.05 0.05 0.05 0.05 0.05
0.05 0.05 0.05 0.05 0.07 0.07 0.06 0.04 0.04 0.05 0.05 0.04 0.03 0.04 0.04 0.05 0.05 0.05 0.05 0.06 0.07 0.06 0.06 0.07 0.07 0.05 0.04 0.04 0.04 0.04 0.05 0.05 0.05 0.06 0.06 0.06 0.05 0.04 0.04 0.04 0.05 0.04 0.03
0.04 0.05 0.05 0.06 0.06 0.07 0.06 0.06 0.06 0.06 0.06 0.05 0.03 0.03 0.04 0.04 0.04 0.04 0.03 0.04 0.05 0.04 0.03 0.03 0.04 0.03 0.03 0.03 0.03 0.04 0.05 0.06 0.07 0.06 0.06 0.06 0.05 0.05 0.04 0.04 0.04 0.04 0.03
0.05 0.06 0.05 0.06 0.06 0.06 0.06 0.06 0.06 0.07 0.09 0.09 0.09 0.07 0.05 0.04 0.04 0.04 0.05 0.05 0.05 0.05 0.06 0.05 0.03 0.02 0.03 0.03 0.03 0.04 0.05 0.07 0.08 0.08 0.08 0.07 0.06 0.05 0.04 0.04 0.04 0.04 0.04
0.04 0.06 0.06 0.06 0.07 0.07 0.06 0.06 0.07 0.08 0.08 0.12 0.13 0.13 0.11 0.09 0.07 0.05 0.04 0.04 0.04 0.04 0.05 0.05 0.04 0.03 0.02 0.04 0.04 0.04 0.04 0.05 0.05 0.07 0.08 0.07 0.07 0.06 0.06 0.04 0.04 0.03 0.03
0.03 0.04 0.06 0.06 0.06 0.06 0.05 0.05 0.06 0.06 0.07 0.08 0.10 0.11 0.10 0.10 0.09 0.07 0.04 0.03 0.04 0.04 0.04 0.04 0.04 0.04 0.04 0.04 0.05 0.05 0.05 0.04 0.04 0.05 0.07 0.07 0.07 0.07 0.06 0.05 0.05 0.04 0.03
0.04 0.05 0.05 0.06 0.06 0.05 0.05 0.05 0.05 0.05 0.06 0.05 0.07 0.09 0.08 0.10 0.10 0.09 0.06 0.05 0.05 0.05 0.05 0.04 0.04 0.04 0.05 0.04 0.05 0.04 0.03 0.03 0.04 0.05 0.07 0.07 0.08 0.08 0.08 0.06 0.05 0.05 0.04
0.07 0.06 0.06 0.05 0.06 0.05 0.05 0.05 0.05 0.05 0.06 0.06 0.06 0.07 0.08 0.09 0.10 0.09 0.08 0.08 0.07 0.05 0.05 0.06 0.05 0.05 0.05 0.05 0.06 0.05 0.03 0.02 0.02 0.04 0.05 0.05 0.06 0.07 0.08 0.07 0.06 0.06 0.05
0.06 0.06 0.05 0.05 0.05 0.05 0.05 0.07 0.08 0.08 0.08 0.08 0.08 0.08 0.09 0.09 0.09 0.09 0.10 0.09 0.07 0.05 0.04 0.06 0.06 0.05 0.05 0.06 0.05 0.06 0.04 0.02 0.01 0.01 0.02 0.03 0.03 0.04 0.05 0.06 0.06 0.05 0.05
0.06 0.06 0.05 0.05 0.05 0.05 0.05 0.07 0.10 0.09 0.09 0.09 0.10 0.09 0.09 0.09 0.09 0.10 0.11 0.12 0.10 0.07 0.06 0.06 0.07 0.06 0.05 0.06 0.05 0.04 0.04 0.03 0.02 0.01 0.01 0.02 0.02 0.02 0.03 0.04 0.05 0.05 0.04
0.05 0.05 0.06 0.06 0.04 0.05 0.04 0.06 0.08 0.08 0.08 0.08 0.09 0.09 0.08 0.08 0.09 0.10 0.12 0.12 0.11 0.10 0.08 0.07 0.07 0.06 0.06 0.06 0.05 0.04 0.04 0.04 0.03 0.02 0.01 0.01 0.01 0.01 0.02 0.02 0.04 0.05 0.04
0.06 0.06 0.07 0.05 0.04 0.05 0.06 0.07 0.07 0.07 0.07 0.06 0.06 0.06 0.06 0.05 0.06 0.07 0.08 0.09 0.11 0.11 0.10 0.08 0.06 0.05 0.05 0.05 0.05 0.05 0.05 0.03 0.03 0.03 0.01 0.01 0.01 0.00 0.01 0.01 0.03 0.05 0.04
0.06 0.07 0.06 0.06 0.06 0.06 0.06 0.06 0.06 0.05 0.06 0.06 0.06 0.05 0.04 0.04 0.05 0.06 0.07 0.08 0.09 0.09 0.09 0.06 0.04 0.05 0.05 0.04 0.05 0.04 0.04 0.03 0.02 0.02 0.02 0.01 0.00 0.00 0.00 0.00 0.01 0.05 0.06
0.07 0.07 0.07 0.07 0.06 0.06 0.05 0.05 0.06 0.05 0.06 0.06 0.06 0.05 0.05 0.05 0.06 0.06 0.07 0.07 0.07 0.08 0.09 0.06 0.04 0.05 0.06 0.06 0.06 0.05 0.05 0.04 0.02 0.01 0.01 0.01 0.00 0.00 0.00 0.00 0.00 0.01 0.04
0.08 0.09 0.08 0.07 0.06 0.05 0.06 0.06 0.06 0.07 0.07 0.06 0.05 0.06 0.05 0.06 0.06 0.06 0.07 0.08 0.07 0.09 0.10 0.09 0.08 0.09 0.08 0.05 0.07 0.07 0.05 0.03 0.03 0.02 0.01 0.01 0.01 0.00 0.00 0.00 0.00 0.00 0.01
0.07 0.08 0.08 0.08 0.07 0.07 0.06 0.06 0.07 0.07 0.06 0.06 0.06 0.07 0.07 0.07 0.06 0.06 0.07 0.07 0.07 0.08 0.09 0.08 0.08 0.08 0.07 0.05 0.06 0.06 0.05 0.05 0.04 0.03 0.02 0.01 0.01 0.01 0.00 0.00 0.00 0.00 0.00
0.07 0.07 0.07 0.07 0.07 0.07 0.05 0.05 0.05 0.04 0.04 0.05 0.06 0.07 0.06 0.06 0.06 0.05 0.05 0.07 0.07 0.08 0.08 0.07 0.08 0.08 0.07 0.07 0.06 0.05 0.05 0.06 0.05 0.04 0.02 0.02 0.02 0.01 0.01 0.01 0.01 0.00 0.00
0.05 0.05 0.06 0.05 0.05 0.05 0.05 0.05 0.04 0.04 0.04 0.05 0.05 0.06 0.06 0.06 0.05 0.05 0.05 0.06 0.07 0.07 0.08 0.09 0.08 0.07 0.07 0.06 0.05 0.05 0.06 0.07 0.07 0.06 0.06 0.04 0.03 0.02 0.02 0.02 0.02 0.01 0.01
0.06 0.05 0.05 0.04 0.03 0.02 0.02 0.02 0.04 0.04 0.05 0.06 0.06 0.06 0.06 0.06 0.05 0.04 0.04 0.05 0.05 0.06 0.06 0.07 0.06 0.06 0.05 0.06 0.06 0.06 0.06 0.07 0.06 0.06 0.06 0.06 0.05 0.04 0.03 0.02 0.02 0.02 0.02
0.05 0.04 0.03 0.03 0.02 0.02 0.01 0.01 0.01 0.03 0.04 0.05 0.05 0.05 0.05 0.05 0.06 0.05 0.04 0.05 0.05 0.03 0.03 0.04 0.05 0.06 0.08 0.07 0.05 0.06 0.06 0.06 0.07 0.06 0.05 0.06 0.06 0.06 0.05 0.03 0.02 0.01 0.01
0.02 0.02 0.02 0.03 0.03 0.02 0.01 0.01 0.01 0.04 0.04 0.04 0.04 0.03 0.04 0.06 0.07 0.06 0.05 0.06 0.06 0.03 0.02 0.02 0.04 0.05 0.06 0.06 0.05 0.06 0.07 0.07 0.09 0.08 0.07 0.06 0.05 0.06 0.06 0.06 0.05 0.04 0.03
0.02 0.02 0.02 0.02 0.03 0.03 0.01 0.01 0.01 0.03 0.04 0.03 0.03 0.03 0.03 0.05 0.06 0.06 0.06 0.06 0.08 0.06 0.03 0.02 0.02 0.03 0.03 0.04 0.03 0.05 0.06 0.07 0.08 0.09 0.08 0.06 0.05 0.06 0.06 0.06 0.06 0.05 0.04
0.02 0.01 0.01 0.02 0.02 0.02 0.01 0.01 0.00 0.01 0.03 0.02 0.03 0.02 0.02 0.03 0.04 0.05 0.06 0.06 0.05 0.06 0.04 0.02 0.02 0.02 0.02 0.03 0.03 0.04 0.07 0.08 0.07 0.07 0.07 0.07 0.06 0.06 0.07 0.07 0.07 0.06 0.06
MSLP
1007.95 1007.90 1007.77 1007.59 1007.40 1007.22 1007.08 1006.97 1006.89 1006.81 1006.71 1006.59 1006.44 1006.30 1006.19 1006.15 1006.23 1006.44 1006.79 1007.24 1007.78 1008.36 1008.95 1009.51 1010.04 1010.54 1011.01 1011.47 1011.93 1012.40 1012.90 1013.42 1013.95 1014.48 1015.02 1015.54 1016.05 1016.55 1017.04 1017.52 1017.99 1018.46 1018.93
1008.04 1007.97 1007.83 1007.64 1007.43 1007.22 1007.04 1006.89 1006.76 1006.64 1006.50 1006.35 1006.19 1006.02 1005.88 1005.81 1005.83 1005.98 1006.25 1006.64 1007.13 1007.68 1008.27 1008.86 1009.43 1009.98 1010.49 1010.98 1011.46 1011.95 1012.44 1012.94 1013.46 1014.00 1014.54 1015.09 1015.62 1016.15 1016.67 1017.17 1017.67 1018.15 1018.64
1008.14 1008.04 1007.88 1007.68 1007.45 1007.23 1007.02 1006.84 1006.67 1006.52 1006.36 1006.19 1006.00 1005.81 1005.63 1005.50 1005.45 1005.51 1005.68 1005.98 1006.39 1006.90 1007.46 1008.06 1008.67 1009.27 1009.84 1010.38 1010.90 1011.40 1011.90 1012.41 1012.93 1013.47 1014.02 1014.58 1015.14 1015.70 1016.24 1016.77 1017.28 1017.79 1018.30
1008.20 1008.07 1007.90 1007.70 1007.47 1007.24 1007.02 1006.81 1006.62 1006.44 1006.26 1006.07 1005.86 1005.64 1005.42 1005.23 1005.09 1005.05 1005.11 1005.30 1005.62 1006.05 1006.58 1007.18 1007.81 1008.45 1009.08 1009.67 1010.24 1010.78 1011.31 1011.84 1012.37 1012.92 1013.48 1014.06 1014.64 1015.22 1015.79 1016.34 1016.88 1017.40 1017.93
1008.19 1008.05 1007.88 1007.68 1007.47 1007.25 1007.02 1006.81 1006.61 1006.42 1006.22 1006.00 1005.77 1005.52 1005.25 1005.00 1004.78 1004.63 1004.59 1004.67 1004.89 1005.24 1005.72 1006.29 1006.93 1007.59 1008.26 1008.91 1009.53 1010.12 1010.69 1011.25 1011.81 1012.38 1012.96 1013.56 1014.16 1014.76 1015.35 1015.91 1016.47 1017.01 1017.55
1008.11 1007.97 1007.82 1007.65 1007.46 1007.26 1007.05 1006.84 1006.63 1006.43 1006.21 1005.98 1005.72 1005.44 1005.14 1004.83 1004.54 1004.32 1004.17 1004.15 1004.28 1004.54 1004.95 1005.48 1006.10 1006.78 1007.47 1008.15 1008.81 1009.45 1010.06 1010.66 1011.26 1011.86 1012.47 1013.10 1013.72 1014.33 1014.93 1015.51 1016.07 1016.62 1017.17
1007.99 1007.87 1007.75 1007.62 1007.47 1007.30 1007.11 1006.91 1006.70 1006.48 1006.24 1005.99 1005.72 1005.41 1005.08 1004.74 1004.41 1004.13 1003.92 1003.82 1003.85 1004.04 1004.38 1004.85 1005.42 1006.07 1006.75 1007.45 1008.13 1008.79 1009.44 1010.08 1010.72 1011.36 1012.01 1012.65 1013.30 1013.92 1014.53 1015.11 1015.68 1016.23 1016.78
1007.88 1007.78 1007.70 1007.61 1007.50 1007.36 1007.19 1007.00 1006.79 1006.55 1006.31 1006.04 1005.75 1005.43 1005.09 1004.74 1004.40 1004.08 1003.84 1003.69 1003.66 1003.78 1004.04 1004.43 1004.93 1005.52 1006.16 1006.83 1007.50 1008.18 1008.84 1009.51 1010.18 1010.85 1011.53 1012.20 1012.86 1013.50 1014.11 1014.69 1015.25 1015.80 1016.34
1007.81 1007.74 1007.68 1007.63 1007.55 1007.44 1007.29 1007.11 1006.89 1006.64 1006.38 1006.10 1005.80 1005.48 1005.16 1004.82 1004.49 1004.18 1003.93 1003.76 1003.70 1003.75 1003.94 1004.25 1004.66 1005.16 1005.72 1006.32 1006.95 1007.59 1008.24 1008.91 1009.59 1010.29 1010.99 1011.68 1012.35 1013.00 1013.62 1014.20 1014.75 1015.29 1015.83
1007.80 1007.75 1007.71 1007.67 1007.61 1007.52 1007.38 1007.19 1006.96 1006.71 1006.43 1006.14 1005.84 1005.54 1005.24 1004.94 1004.64 1004.38 1004.15 1003.99 1003.92 1003.94 1004.06 1004.28 1004.59 1004.97 1005.42 1005.92 1006.46 1007.03 1007.63 1008.27 1008.95 1009.64 1010.35 1011.05 1011.74 1012.40 1013.02 1013.60 1014.15 1014.69 1015.23
1007.85 1007.79 1007.75 1007.71 1007.65 1007.55 1007.41 1007.22 1006.98 1006.72 1006.43 1006.14 1005.86 1005.58 1005.31 1005.06 1004.82 1004.62 1004.45 1004.32 1004.26 1004.25 1004.32 1004.46 1004.66 1004.93 1005.24 1005.61 1006.03 1006.50 1007.02 1007.60 1008.24 1008.91 1009.61 1010.32 1011.01 1011.68 1012.31 1012.90 1013.46 1014.00 1014.54
1007.92 1007.84 1007.77 1007.71 1007.63 1007.52 1007.36 1007.16 1006.92 1006.65 1006.37 1006.09 1005.82 1005.58 1005.35 1005.16 1004.99 1004.86 1004.75 1004.68 1004.64 1004.64 1004.67 1004.74 1004.84 1004.98 1005.16 1005.38 1005.66 1006.01 1006.43 1006.93 1007.51 1008.14 1008.82 1009.52 1010.21 1010.89 1011.53 1012.13 1012.71 1013.26 1013.81
1007.97 1007.85 1007.74 1007.64 1007.53 1007.39 1007.22 1007.01 1006.78 1006.52 1006.25 1005.99 1005.75 1005.54 1005.36 1005.22 1005.12 1005.06 1005.02 1005.01 1005.01 1005.03 1005.04 1005.06 1005.08 1005.11 1005.16 1005.25 1005.39 1005.61 1005.92 1006.32 1006.82 1007.40 1008.04 1008.73 1009.42 1010.10 1010.76 1011.38 1011.98 1012.55 1013.11
1007.97 1007.80 1007.64 1007.49 1007.35 1007.19 1007.01 1006.80 1006.58 1006.34 1006.09 1005.86 1005.65 1005.48 1005.34 1005.26 1005.21 1005.21 1005.24 1005.29 1005.33 1005.37 1005.39 1005.39 1005.35 1005.30 1005.25 1005.22 1005.25 1005.34 1005.54 1005.85 1006.27 1006.79 1007.39 1008.05 1008.73 1009.42 1010.09 1010.73 1011.34 1011.94 1012.51
1007.90 1007.68 1007.48 1007.29 1007.12 1006.94 1006.76 1006.57 1006.37 1006.16 1005.95 1005.76 1005.58 1005.44 1005.34 1005.29 1005.28 1005.33 1005.40 1005.50 1005.59 1005.66 1005.70 1005.69 1005.63 1005.53 1005.42 1005.31 1005.25 1005.25 1005.36 1005.58 1005.93 1006.39 1006.95 1007.58 1008.24 1008.92 1009.60 1010.25 1010.88 1011.48 1012.06
1007.78 1007.53 1007.30 1007.08 1006.88 1006.70 1006.53 1006.37 1006.20 1006.04 1005.87 1005.71 1005.56 1005.44 1005.36 1005.33 1005.35 1005.41 1005.52 1005.64 1005.77 1005.87 1005.94 1005.95 1005.89 1005.79 1005.65 1005.51 1005.39 1005.35 1005.39 1005.55 1005.84 1006.25 1006.76 1007.35 1007.99 1008.65 1009.32 1009.96 1010.59 1011.18 1011.75
1007.65 1007.39 1007.14 1006.91 1006.71 1006.53 1006.38 1006.24 1006.11 1005.99 1005.86 1005.73 1005.61 1005.51 1005.43 1005.40 1005.41 1005.48 1005.59 1005.73 1005.88 1006.01 1006.11 1006.15 1006.13 1006.04 1005.92 1005.78 1005.66 1005.60 1005.62 1005.75 1006.00 1006.36 1006.83 1007.38 1007.98 1008.60 1009.23 1009.85 1010.44 1011.01 1011.56
1007.55 1007.30 1007.04 1006.80 1006.60 1006.43 1006.30 1006.19 1006.10 1006.00 1005.91 1005.81 1005.70 1005.61 1005.53 1005.48 1005.48 1005.53 1005.62 1005.76 1005.91 1006.06 1006.19 1006.27 1006.29 1006.26 1006.18 1006.08 1005.99 1005.94 1005.96 1006.08 1006.31 1006.64 1007.07 1007.56 1008.11 1008.68 1009.25 1009.81 1010.36 1010.88 1011.39
1007.50 1007.25 1007.00 1006.76 1006.56 1006.40 1006.27 1006.18 1006.11 1006.04 1005.97 1005.89 1005.79 1005.69 1005.60 1005.54 1005.51 1005.53 1005.61 1005.72 1005.87 1006.03 1006.18 1006.29 1006.36 1006.38 1006.36 1006.32 1006.28 1006.27 1006.32 1006.45 1006.67 1006.98 1007.36 1007.80 1008.28 1008.77 1009.27 1009.76 1010.23 1010.70 1011.14
1007.46 1007.22 1006.98 1006.74 1006.54 1006.37 1006.25 1006.16 1006.09 1006.03 1005.97 1005.90 1005.81 1005.72 1005.62 1005.54 1005.48 1005.48 1005.53 1005.62 1005.75 1005.91 1006.07 1006.21 1006.32 1006.39 1006.42 1006.44 1006.46 1006.51 1006.59 1006.74 1006.96 1007.24 1007.58 1007.96 1008.37 1008.78 1009.19 1009.59 1009.99 1010.37 1010.75
1007.39 1007.17 1006.93 1006.69 1006.47 1006.29 1006.15 1006.05 1005.97 1005.91 1005.86 1005.80 1005.72 1005.63 1005.53 1005.44 1005.38 1005.36 1005.38 1005.45 1005.56 1005.71 1005.86 1006.02 1006.15 1006.26 1006.34 1006.42 1006.49 1006.57 1006.70 1006.86 1007.08 1007.35 1007.65 1007.97 1008.30 1008.63 1008.96 1009.26 1009.57 1009.88 1010.20
1007.23 1007.02 1006.78 1006.53 1006.30 1006.10 1005.93 1005.80 1005.71 1005.65 1005.60 1005.54 1005.48 1005.41 1005.33 1005.25 1005.19 1005.17 1005.18 1005.23 1005.33 1005.45 1005.60 1005.74 1005.89 1006.01 1006.12 1006.23 1006.33 1006.45 1006.60 1006.78 1007.00 1007.25 1007.51 1007.79 1008.05 1008.31 1008.55 1008.78 1009.00 1009.24 1009.49
1006.94 1006.73 1006.49 1006.24 1005.99 1005.76 1005.57 1005.42 1005.32 1005.24 1005.20 1005.16 1005.12 1005.08 1005.03 1004.98 1004.94 1004.93 1004.94 1004.98 1005.06 1005.17 1005.29 1005.42 1005.56 1005.68 1005.80 1005.91 1006.03 1006.17 1006.33 1006.51 1006.72 1006.95 1007.19 1007.43 1007.64 1007.84 1008.02 1008.18 1008.34 1008.51 1008.72
1006.48 1006.29 1006.06 1005.81 1005.55 1005.31 1005.11 1004.94 1004.82 1004.75 1004.71 1004.70 1004.69 1004.68 1004.68 1004.67 1004.66 1004.66 1004.68 1004.72 1004.79 1004.88 1004.98 1005.09 1005.20 1005.30 1005.41 1005.52 1005.63 1005.76 1005.92 1006.10 1006.30 1006.52 1006.74 1006.94 1007.13 1007.29 1007.42 1007.54 1007.65 1007.78 1007.95
1005.88 1005.72 1005.52 1005.28 1005.04 1004.81 1004.60 1004.43 1004.32 1004.25 1004.23 1004.23 1004.26 1004.29 1004.31 1004.34 1004.36 1004.38 1004.41 1004.45 1004.51 1004.58 1004.66 1004.75 1004.83 1004.91 1005.00 1005.09 1005.19 1005.31 1005.45 1005.62 1005.81 1006.01 1006.21 1006.41 1006.58 1006.73 1006.84 1006.94 1007.03 1007.13 1007.26
1005.21 1005.09 1004.93 1004.74 1004.52 1004.31 1004.12 1003.97 1003.87 1003.82 1003.81 1003.83 1003.88 1003.93 1003.97 1004.02 1004.05 1004.08 1004.11 1004.15 1004.20 1004.25 1004.32 1004.38 1004.45 1004.52 1004.58 1004.66 1004.74 1004.84 1004.96 1005.12 1005.29 1005.48 1005.68 1005.87 1006.05 1006.20 1006.32 1006.41 1006.49 1006.57 1006.68
Thickness
5729 5727 5725 5723 5722 5721 5721 5720 5719 5719 5719 5719 5719 5719 5719 5718 5717 5716 5715 5714 5714 5712 5711 5710 5708 5707 5706 5706 5706 5706 5705 5705 5705 5704 5704 5704 5704 5704 5704 5704 5704 5704 5705
5724 5722 5720 5718 5717 5716 5715 5714 5713 5713 5713 5712 5712 5713 5713 5712 5712 5711 5709 5708 5707 5706 5705 5705 5704 5703 5702 5702 5702 5701 5701 5701 5701 5701 5701 5701 5702 5701 5701 5701 5702 5702 5702
5719 5717 5715 5713 5712 5711 5710 5708 5707 5707 5706 5706 5706 5706 5706 5706 5706 5705 5704 5703 5702 5701 5700 5700 5700 5699 5698 5698 5698 5697 5697 5698 5698 5698 5698 5698 5699 5698 5698 5698 5699 5699 5699
5714 5712 5710 5708 5706 5704 5703 5701 5700 5698 5698 5698 5698 5699 5700 5700 5700 5700 5699 5698 5697 5696 5695 5695 5695 5694 5693 5693 5693 5693 5693 5694 5694 5694 5695 5695 5695 5695 5695 5695 5696 5696 5696
5709 5707 5704 5702 5700 5698 5696 5695 5692 5691 5689 5689 5690 5692 5694 5694 5694 5695 5693 5693 5693 5692 5691 5690 5690 5689 5688 5688 5689 5689 5689 5690 5690 5691 5691 5692 5691 5691 5692 5692 5692 5693 5693
5704 5702 5699 5697 5695 5692 5690 5688 5685 5685 5684 5683 5684 5686 5686 5687 5688 5688 5688 5688 5687 5687 5687 5686 5685 5685 5684 5684 5684 5684 5684 5685 5686 5687 5687 5687 5688 5688 5688 5688 5689 5689 5689
5700 5697 5695 5692 5690 5687 5684 5682 5680 5678 5677 5677 5674 5674 5677 5680 5681 5682 5682 5682 5682 5682 5682 5682 5682 5682 5681 5680 5680 5679 5680 5680 5681 5681 5682 5683 5683 5684 5684 5684 5684 5685 5686
5695 5693 5690 5687 5685 5682 5679 5677 5675 5672 5671 5671 5666 5662 5662 5665 5669 5674 5674 5675 5676 5677 5678 5678 5679 5678 5678 5676 5675 5675 5675 5675 5676 5677 5677 5678 5679 5679 5680 5680 5681 5681 5681
5690 5687 5684 5682 5679 5677 5674 5672 5670 5666 5663 5664 5663 5657 5652 5652 5656 5662 5666 5669 5670 5671 5672 5673 5674 5674 5673 5672 5672 5671 5670 5671 5671 5672 5673 5673 5673 5674 5675 5675 5677 5677 5678
5685 5682 5679 5676 5673 5671 5669 5667 5666 5663 5659 5656 5657 5656 5653 5651 5647 5649 5656 5661 5663 5665 5666 5668 5669 5670 5669 5668 5668 5667 5667 5667 5667 5668 5668 5669 5669 5669 5670 5670 5671 5672 5673
5680 5678 5675 5671 5668 5665 5664 5662 5660 5658 5655 5653 5651 5650 5648 5648 5647 5643 5644 5650 5654 5658 5661 5662 5664 5666 5666 5665 5664 5663 5663 5663 5662 5663 5664 5664 5664 5664 5665 5666 5666 5667 5668
5676 5673 5671 5667 5664 5661 5659 5657 5655 5653 5651 5649 5647 5646 5644 5642 5641 5639 5638 5641 5644 5649 5654 5657 5659 5661 5661 5661 5660 5659 5659 5658 5658 5659 5659 5659 5659 5659 5660 5661 5661 5662 5663
5671 5668 5666 5663 5660 5657 5656 5654 5651 5649 5647 5645 5643 5641 5641 5639 5638 5636 5634 5635 5638 5642 5646 5649 5653 5654 5655 5655 5654 5655 5655 5654 5654 5654 5653 5653 5653 5654 5654 5655 5655 5656 5656
5668 5666 5663 5660 5657 5655 5653 5650 5648 5645 5643 5641 5639 5636 5635 5635 5634 5633 5631 5630 5630 5634 5637 5641 5646 5648 5648 5649 5649 5649 5649 5649 5649 5649 5649 5649 5648 5648 5648 5648 5649 5649 5649
5667 5664 5660 5657 5655 5652 5650 5647 5644 5641 5639 5637 5634 5632 5631 5631 5631 5630 5629 5628 5626 5625 5628 5633 5637 5641 5642 5643 5644 5643 5644 5645 5644 5644 5645 5644 5643 5643 5642 5642 5642 5642 5642
5664 5661 5658 5655 5652 5650 5647 5644 5641 5638 5635 5632 5630 5628 5627 5627 5626 5626 5626 5626 5626 5624 5623 5628 5631 5634 5636 5638 5638 5638 5638 5639 5639 5639 5639 5638 5638 5637 5636 5636 5635 5635 5635
5661 5658 5656 5653 5650 5647 5644 5641 5638 5636 5632 5629 5627 5625 5623 5622 5621 5621 5621 5622 5622 5621 5619 5622 5625 5628 5630 5630 5631 5632 5632 5633 5633 5633 5633 5633 5632 5631 5630 5630 5629 5629 5629
5659 5657 5654 5651 5648 5645 5641 5638 5635 5633 5629 5626 5624 5622 5620 5619 5617 5617 5616 5616 5617 5617 5615 5615 5618 5621 5623 5624 5625 5626 5627 5628 5628 5628 5627 5627 5626 5626 5625 5624 5623 5623 5623
5657 5655 5652 5648 5645 5642 5638 5635 5633 5630 5627 5625 5622 5619 5617 5615 5613 5612 5612 5612 5612 5613 5613 5612 5614 5616 5617 5619 5619 5621 5622 5621 5623 5622 5622 5621 5621 5620 5620 5619 5618 5617 5617
5656 5653 5650 5647 5643 5640 5636 5632 5630 5628 5625 5623 5620 5618 5615 5613 5611 5610 5609 5608 5609 5608 5609 5609 5610 5611 5612 5614 5614 5614 5614 5615 5617 5618 5617 5616 5615 5615 5614 5614 5613 5612 5611
5654 5651 5648 5645 5642 5638 5633 5629 5627 5626 5622 5620 5618 5616 5614 5611 5609 5608 5607 5606 5606 5605 5605 5605 5606 5607 5607 5607 5608 5610 5610 5611 5612 5613 5611 5611 5610 5610 5609 5608 5607 5606 5605
5652 5649 5646 5643 5639 5636 5629 5626 5624 5622 5620 5618 5616 5614 5612 5610 5608 5607 5605 5604 5604 5604 5603 5603 5603 5603 5604 5604 5605 5606 5606 5606 5605 5608 5607 5606 5606 5605 5605 5603 5602 5601 5600
5651 5648 5644 5641 5637 5632 5628 5626 5623 5620 5618 5616 5614 5611 5611 5610 5607 5606 5604 5604 5603 5602 5602 5601 5601 5601 5602 5603 5603 5603 5603 5602 5601 5603 5602 5600 5601 5600 5600 5600 5598 5596 5595
5649 5646 5643 5640 5636 5632 5628 5625 5622 5620 5617 5614 5612 5610 5607 5605 5604 5602 5603 5602 5601 5601 5601 5600 5600 5601 5601 5602 5601 5602 5601 5601 5601 5600 5599 5595 5596 5595 5595 5593 5593 5592 5591
5648 5645 5642 5639 5635 5630 5626 5623 5620 5618 5616 5613 5611 5608 5605 5603 5601 5600 5600 5600 5600 5599 5600 5600 5599 5599 5599 5599 5599 5598 5597 5596 5595 5595 5595 5593 5592 5590 5589 5588 5587 5586 5585
5648 5646 5642 5639 5636 5630 5625 5622 5618 5617 5614 5611 5609 5607 5604 5602 5600 5599 5598 5598 5597 5598 5598 5599 5598 5598 5598 5597 5596 5595 5595 5593 5592 5590 5592 5590 5588 5586 5584 5584 5582 5581 5579